Wind_Speed
8 10 6 8 6 3 6 7 8 7 11 7 7 7 8 7 9 16 11 12 11 9 6 6 7 8 7 7 7 5 4 3 3 4 4 4 4 4 3 3 3 3 3
5 5 4 4 3 2 5 6 8 9 7 8 8 8 5 7 10 4 11 10 10 7 6 6 7 9 9 8 8 6 5 4 5 4 4 3 3 3 3 3 4 4 6
8 8 7 5 2 5 6 6 8 5 7 6 4 8 3 3 6 7 3 6 8 9 7 5 8 8 9 8 8 7 5 6 5 6 5 4 4 4 4 4 4 4 4
8 9 5 5 7 7 8 7 8 10 8 6 11 9 11 10 5 8 5 4 9 11 9 7 8 7 8 8 7 6 6 5 6 5 5 5 5 5 4 4 3 4 3
7 8 4 5 6 9 10 7 6 8 8 8 9 13 11 11 11 10 7 7 6 9 10 9 10 9 8 7 7 7 6 6 6 5 6 6 5 5 5 6 6 4 3
5 3 1 3 4 10 14 7 8 7 7 7 9 7 9 10 10 9 11 8 6 7 12 11 8 10 8 8 8 8 7 7 7 7 7 7 7 7 6 6 5 4 4
2 4 2 3 1 5 7 8 4 6 7 7 6 8 9 12 14 14 11 12 9 11 6 10 11 10 9 8 9 8 8 8 9 9 9 9 8 7 7 5 5 4 4
4 3 5 5 5 7 7 6 6 6 8 6 8 8 10 14 19 12 13 10 14 13 11 13 10 8 7 7 9 8 8 8 9 9 9 9 8 7 6 6 5 4 4
6 5 5 6 9 9 8 8 8 8 8 9 10 9 9 8 17 24 18 14 15 12 15 6 6 7 7 7 6 7 7 7 7 8 7 7 6 6 6 5 5 5 5
5 3 6 9 6 9 9 10 13 11 10 9 8 10 11 8 5 10 18 17 12 16 18 25 13 8 8 7 6 6 8 8 7 7 6 6 7 7 7 7 6 5 5
4 2 5 7 8 13 10 11 13 14 12 11 9 10 14 12 11 13 12 13 15 15 19 17 14 13 10 11 8 9 9 9 9 9 8 8 7 7 7 7 6 6 6
16 25 16 4 4 4 6 10 11 11 13 15 17 14 14 12 5 15 18 17 20 19 16 18 17 14 11 11 10 9 12 10 8 8 8 9 9 9 9 8 8 8 9
17 19 18 12 4 7 5 4 6 8 12 10 13 11 11 10 11 11 10 9 4 26 18 17 16 11 12 7 9 10 13 9 7 7 7 9 11 12 11 10 9 8 7
15 18 17 9 6 10 6 8 6 8 10 10 10 11 13 14 14 12 7 1 3 14 18 18 16 15 15 17 9 10 9 7 6 7 8 9 8 9 10 10 9 8 7
15 14 15 14 10 11 10 10 9 9 9 11 12 13 16 16 17 16 13 7 5 4 17 16 15 14 16 14 14 14 11 7 9 11 12 12 11 11 10 11 11 12 12
12 15 17 18 15 14 14 15 16 16 14 12 13 15 17 18 19 18 17 14 12 7 10 11 14 15 21 15 13 15 6 7 10 13 15 15 16 14 14 13 13 13 14
11 14 17 20 23 24 23 21 21 20 20 18 18 18 17 17 16 18 19 18 19 17 10 15 14 17 16 17 12 9 11 15 15 15 15 12 11 11 13 15 17 17 17
19 21 24 27 29 29 29 29 27 24 24 24 22 23 23 22 17 20 21 20 20 22 20 17 16 20 29 21 20 18 17 18 18 19 21 18 15 13 12 16 17 18 18
28 30 32 33 34 32 29 28 29 28 28 27 26 24 26 27 28 21 21 26 23 26 26 22 21 17 18 27 14 23 24 24 24 22 21 22 19 17 20 21 20 20 20
34 37 37 36 32 27 25 24 24 28 30 29 30 30 30 29 29 32 23 23 24 24 29 30 29 26 25 25 26 26 27 26 23 21 20 23 23 21 22 22 17 19 21
39 41 40 37 33 28 25 23 23 25 27 31 32 33 34 33 30 29 25 17 25 24 22 20 29 29 30 31 32 32 33 30 28 23 23 19 19 18 17 17 22 17 18
42 42 40 36 33 30 27 25 25 26 25 26 31 35 37 36 34 28 27 25 29 30 27 25 25 25 27 29 30 31 33 31 31 24 26 27 25 20 18 24 20 17 18
41 39 37 35 34 32 29 27 27 29 30 29 28 29 33 36 39 36 32 31 32 29 32 29 29 27 27 27 29 29 31 31 31 28 30 27 26 26 21 22 22 23 22
38 38 38 37 35 34 33 31 28 31 33 32 31 30 31 32 34 38 38 36 36 34 32 35 35 33 33 29 30 32 32 29 29 29 29 29 25 28 24 25 26 25 24
41 40 39 38 37 36 34 34 33 33 34 37 36 34 33 32 32 34 35 38 40 39 37 37 37 37 36 35 33 33 34 34 33 33 33 34 31 30 30 29 30 28 26
46 44 42 40 39 38 35 35 35 35 35 33 33 36 35 34 30 33 35 37 40 37 39 39 40 38 39 35 36 37 34 35 35 37 34 36 34 34 36 35 31 27 25
Wind_Direction
231 164 194 191 144 184 214 209 192 208 201 175 195 236 205 187 174 195 182 191 184 212 226 252 258 261 256 253 258 253 245 243 246 233 211 203 195 188 193 186 174 173 161
254 263 234 253 100 124 218 225 200 178 180 213 201 189 159 174 212 267 182 191 172 175 195 243 253 255 254 250 252 249 224 218 225 220 224 209 196 170 171 156 154 156 141
245 259 258 242 225 229 247 214 187 155 191 198 190 201 170 286 247 239 203 219 195 193 208 207 255 243 247 247 243 238 235 219 214 212 208 194 177 165 156 163 152 141 129
213 234 249 277 268 221 241 225 185 174 182 182 206 197 192 170 214 285 282 226 228 235 238 231 240 240 234 226 220 218 225 228 223 215 200 186 178 170 165 163 159 169 163
232 242 281 295 239 235 232 252 183 195 174 154 190 194 194 192 201 193 238 278 270 231 215 239 225 223 228 219 210 206 216 225 223 213 205 196 188 188 189 189 200 198 197
251 254 281 291 284 229 224 229 158 188 200 202 207 221 207 236 231 227 219 225 235 244 235 237 241 239 232 228 225 216 216 220 220 212 207 205 202 203 204 205 209 216 222
225 232 240 239 271 177 204 218 182 203 208 199 201 249 258 243 242 237 228 217 213 226 233 240 233 238 241 231 228 225 219 216 218 217 210 207 208 206 209 212 214 220 229
353 254 257 259 235 234 207 220 223 226 239 224 221 247 255 251 227 233 240 246 235 220 267 251 218 230 227 235 227 217 216 216 213 214 213 213 212 211 212 214 219 226 228
342 334 280 263 236 235 228 233 250 255 265 252 244 267 271 277 244 223 235 234 227 223 225 226 203 208 205 216 219 217 213 213 215 215 219 221 220 218 218 212 208 212 225
318 314 297 289 269 235 246 247 251 257 268 246 243 264 284 294 166 227 227 217 230 222 225 240 219 229 206 206 220 220 221 211 210 213 218 223 222 220 221 220 216 215 226
333 265 242 237 256 243 236 248 256 261 259 252 256 259 291 276 254 257 253 249 232 220 212 212 218 238 227 233 226 223 223 210 199 199 204 212 212 224 230 227 225 228 234
327 7 13 308 309 271 261 253 264 258 267 260 267 264 272 274 239 272 274 247 238 219 206 213 223 209 215 232 239 222 216 206 205 213 218 229 233 235 233 233 236 245 251
333 344 358 352 356 353 327 305 286 283 273 266 284 259 233 242 275 289 280 316 344 201 205 199 197 194 201 211 229 205 199 189 201 217 228 239 242 242 240 242 243 245 250
331 338 354 36 49 7 339 325 327 292 290 265 274 235 244 258 269 274 267 285 254 236 197 194 193 195 191 213 216 221 203 199 219 236 244 245 247 245 241 243 242 240 256
323 334 343 359 349 322 317 310 312 305 290 281 258 258 254 254 262 265 263 264 280 123 187 224 219 213 202 204 182 204 216 230 256 262 255 256 256 256 250 249 255 263 270
316 323 330 335 333 329 315 308 313 294 284 278 269 261 260 255 257 257 253 256 251 270 258 227 214 235 215 226 229 214 221 240 282 282 264 254 249 251 247 249 254 266 274
303 304 308 312 314 313 311 308 299 292 282 275 273 274 270 266 253 249 242 242 246 252 266 241 233 223 220 225 259 252 249 275 278 274 271 261 266 265 260 256 265 275 277
289 294 301 306 306 302 296 292 288 280 276 271 271 268 268 267 259 248 246 239 243 244 246 230 237 227 217 229 242 255 267 279 284 285 273 275 259 266 269 271 271 269 269
302 305 308 310 309 305 298 287 277 268 262 263 265 264 265 263 262 257 254 250 238 242 243 238 232 239 243 241 220 257 258 270 277 281 274 272 266 266 267 269 269 268 269
305 306 308 308 307 304 304 296 280 267 261 257 255 261 262 261 259 260 243 246 245 246 243 238 244 241 242 246 257 260 264 266 268 266 275 274 271 272 276 266 262 266 270
295 300 302 303 301 300 301 305 294 283 271 262 257 251 256 261 263 263 263 245 249 247 245 248 243 243 240 239 246 253 258 262 264 264 270 272 256 258 263 275 267 263 272
294 294 295 294 291 287 290 293 295 292 284 275 266 259 254 254 260 259 260 258 253 248 244 244 246 250 246 245 245 249 252 254 257 257 255 260 270 266 270 269 270 260 285
293 292 292 291 286 280 280 282 285 283 282 278 274 269 262 259 257 257 255 255 253 255 247 247 248 252 252 250 246 245 249 252 254 251 259 260 260 272 270 264 267 277 278
296 295 295 292 289 283 277 277 277 275 276 279 277 272 267 262 260 259 256 255 252 251 257 257 252 255 255 251 248 246 246 249 249 248 252 257 256 260 267 262 262 267 270
295 294 292 291 287 283 278 275 274 273 273 276 273 270 268 263 261 262 260 255 254 252 251 253 259 262 253 247 249 249 247 247 248 252 257 261 261 265 268 265 263 264 268
293 291 288 287 284 280 277 274 271 273 275 275 272 266 264 264 260 260 260 258 257 256 259 258 260 259 255 251 247 249 248 251 257 257 255 258 261 264 267 262 262 263 262
Height
3210 3209 3211 3210 3210 3207 3213 3214 3213 3214 3216 3216 3218 3218 3221 3224 3224 3222 3222 3224 3223 3227 3228 3229 3230 3231 3231 3231 3231 3231 3231 3230 3230 3230 3232 3232 3232 3233 3233 3233 3233 3233 3233
3204 3207 3208 3210 3209 3210 3211 3211 3211 3214 3213 3216 3218 3217 3220 3223 3224 3222 3223 3224 3223 3225 3226 3228 3228 3229 3229 3229 3230 3230 3230 3230 3230 3230 3230 3230 3231 3231 3232 3232 3232 3233 3233
3207 3208 3207 3207 3208 3210 3210 3208 3210 3211 3211 3214 3216 3217 3216 3217 3220 3222 3222 3222 3222 3223 3225 3224 3225 3226 3227 3227 3228 3229 3229 3229 3229 3229 3230 3230 3230 3231 3231 3232 3232 3232 3232
3208 3208 3208 3209 3209 3210 3208 3208 3209 3210 3211 3213 3214 3215 3216 3217 3219 3218 3218 3221 3222 3222 3222 3223 3225 3225 3225 3226 3226 3227 3227 3227 3228 3228 3228 3228 3229 3230 3230 3231 3231 3232 3233
3207 3207 3207 3207 3207 3208 3208 3208 3208 3209 3210 3211 3212 3213 3215 3216 3216 3216 3218 3218 3218 3219 3221 3223 3224 3224 3224 3224 3225 3225 3226 3226 3227 3227 3228 3228 3228 3229 3229 3230 3231 3231 3231
3207 3207 3207 3208 3207 3207 3208 3209 3208 3208 3209 3210 3212 3213 3212 3213 3215 3216 3215 3215 3217 3219 3220 3222 3223 3224 3222 3222 3223 3223 3224 3225 3225 3226 3227 3227 3227 3228 3228 3229 3229 3230 3230
3206 3206 3205 3207 3207 3207 3209 3210 3208 3208 3209 3210 3212 3212 3211 3211 3213 3214 3215 3215 3215 3218 3219 3220 3221 3221 3220 3220 3220 3221 3222 3223 3224 3225 3225 3225 3226 3226 3226 3226 3227 3228 3228
3203 3204 3203 3205 3206 3208 3209 3210 3208 3205 3209 3210 3211 3211 3210 3210 3211 3213 3213 3213 3214 3213 3216 3218 3218 3219 3218 3218 3219 3219 3220 3221 3222 3223 3224 3224 3224 3224 3224 3224 3225 3225 3226
3199 3200 3201 3202 3204 3205 3206 3208 3208 3208 3208 3209 3209 3210 3209 3208 3207 3209 3211 3212 3211 3211 3212 3213 3214 3215 3217 3217 3217 3217 3218 3219 3219 3221 3222 3222 3222 3223 3223 3222 3223 3224 3224
3200 3201 3200 3200 3200 3202 3204 3205 3205 3205 3207 3206 3207 3206 3206 3205 3206 3208 3204 3205 3207 3206 3208 3198 3211 3213 3216 3216 3216 3215 3216 3216 3217 3218 3220 3220 3221 3221 3221 3221 3221 3222 3222
3205 3199 3198 3193 3195 3197 3199 3201 3202 3205 3204 3204 3205 3203 3202 3201 3201 3203 3204 3203 3201 3202 3203 3205 3206 3210 3212 3214 3215 3213 3214 3215 3215 3216 3217 3218 3219 3220 3220 3219 3219 3220 3220
3189 3177 3189 3196 3195 3193 3191 3196 3198 3198 3202 3202 3201 3200 3199 3197 3196 3197 3199 3199 3199 3199 3200 3202 3203 3206 3209 3212 3212 3211 3212 3212 3214 3215 3216 3217 3217 3218 3218 3218 3217 3218 3218
3194 3194 3197 3197 3195 3194 3193 3193 3195 3195 3193 3197 3196 3195 3195 3195 3196 3198 3198 3195 3188 3195 3196 3197 3200 3201 3205 3208 3210 3210 3211 3210 3211 3212 3213 3213 3214 3215 3215 3215 3215 3215 3215
3198 3198 3198 3199 3197 3193 3191 3193 3192 3192 3192 3191 3193 3193 3193 3194 3194 3196 3197 3188 3193 3194 3194 3195 3196 3197 3200 3202 3207 3208 3208 3208 3209 3210 3211 3211 3211 3212 3212 3213 3213 3213 3213
3196 3196 3196 3195 3191 3191 3190 3190 3189 3190 3190 3190 3189 3189 3190 3190 3191 3191 3192 3193 3191 3189 3192 3195 3195 3197 3198 3201 3200 3204 3205 3205 3207 3208 3208 3208 3209 3209 3209 3210 3210 3210 3210
3194 3194 3192 3191 3192 3190 3189 3187 3186 3187 3187 3186 3186 3184 3185 3186 3187 3187 3187 3188 3188 3190 3189 3189 3192 3196 3197 3197 3199 3197 3199 3202 3204 3205 3203 3203 3204 3204 3205 3206 3206 3207 3207
3193 3192 3191 3189 3187 3186 3184 3183 3183 3183 3182 3183 3181 3180 3179 3180 3178 3181 3182 3182 3181 3184 3187 3188 3188 3190 3191 3194 3194 3194 3195 3197 3199 3199 3200 3200 3200 3201 3201 3202 3202 3203 3202
3188 3189 3187 3185 3183 3182 3179 3177 3176 3176 3176 3175 3174 3175 3174 3173 3174 3175 3175 3178 3177 3178 3180 3183 3186 3188 3188 3189 3189 3190 3191 3193 3194 3195 3195 3196 3196 3196 3197 3197 3197 3197 3197
3179 3179 3178 3176 3174 3172 3170 3168 3166 3166 3165 3165 3166 3166 3165 3165 3166 3169 3172 3172 3173 3173 3174 3176 3179 3182 3184 3182 3177 3184 3186 3188 3189 3189 3188 3190 3191 3191 3191 3191 3191 3191 3191
3170 3168 3167 3166 3165 3164 3162 3159 3156 3154 3154 3154 3156 3156 3156 3155 3156 3154 3161 3164 3166 3165 3163 3168 3171 3174 3176 3177 3176 3177 3180 3183 3184 3184 3182 3182 3184 3185 3185 3185 3185 3185 3185
3164 3161 3157 3155 3154 3154 3153 3150 3147 3145 3145 3145 3146 3146 3147 3147 3149 3150 3146 3149 3157 3156 3157 3156 3160 3164 3167 3169 3170 3173 3173 3175 3176 3177 3176 3177 3178 3179 3180 3180 3180 3179 3179
3153 3151 3148 3145 3144 3144 3144 3143 3140 3137 3136 3135 3137 3137 3137 3137 3138 3144 3145 3144 3146 3148 3148 3149 3151 3153 3157 3159 3162 3164 3165 3166 3167 3170 3169 3171 3171 3172 3173 3173 3175 3175 3174
3140 3137 3135 3133 3132 3133 3133 3134 3132 3130 3128 3127 3127 3127 3127 3127 3128 3130 3135 3137 3138 3139 3140 3141 3143 3145 3148 3151 3152 3154 3155 3156 3156 3159 3160 3162 3165 3165 3166 3168 3169 3169 3168
3126 3123 3122 3120 3119 3120 3121 3122 3122 3120 3118 3118 3117 3116 3117 3118 3118 3119 3121 3123 3126 3129 3132 3133 3135 3138 3140 3142 3143 3144 3145 3143 3148 3151 3152 3153 3157 3159 3159 3161 3161 3161 3161
3114 3113 3110 3108 3107 3107 3108 3108 3108 3109 3107 3107 3107 3106 3106 3107 3109 3109 3109 3111 3113 3117 3121 3123 3124 3127 3129 3132 3134 3135 3136 3137 3138 3140 3144 3144 3147 3149 3150 3151 3152 3153 3154
3101 3100 3099 3098 3096 3095 3096 3097 3096 3096 3095 3095 3096 3095 3096 3097 3099 3100 3100 3101 3101 3107 3108 3111 3113 3116 3120 3122 3125 3125 3128 3128 3130 3132 3137 3136 3139 3141 3140 3141 3143 3145 3145